Location: 3 Angels Observatory
(30.5437°N, 88.5068°W)
Time: 01:41:09
(UTC-05:00)

Amateur Radio Satellites - All Passes

Search period start: 23 October 2014 01:11
Search period end: 24 October 2014 01:11
Location: 3 Angels Observatory, 30.5437°N, 88.5068°W

Satellite Date Start Highest point End Downlink Frequencies (MHz)
Time Altitude Azimuth
Oscar 19 23 Oct 01:23:38 01:26:58 17° 95° (E) 01:30:17 437.125 CW, 437.150 USB
UOSAT-12 23 Oct 01:45:15 01:48:52 22° 250° (WSW) 01:52:26 437.025 FM, 437.400 FM
Oscar 16 23 Oct 02:07:36 02:12:37 55° 101° (E) 02:17:36 437.025 USB, Beacon 2401.1428
JAS-1B 23 Oct 02:08:32 02:15:15 50° 102° (ESE) 02:23:13 435.800 - 435.900 CW/SSB
AO-Echo 23 Oct 02:19:53 02:24:46 36° 98° (E) 02:29:36 ?
Uribyol 2 23 Oct 02:23:46 02:28:19 30° 98° (E) 02:32:49 436.500 FM
ITAMSAT 1 23 Oct 02:29:10 02:33:49 32° 98° (E) 02:38:26 435.822 SSB
Gurwin Techsat 1B 23 Oct 02:37:24 02:41:08 19° 95° (E) 02:44:51 435.225 FM
TMSAT-1 23 Oct 02:50:07 02:53:44 19° 95° (E) 02:57:20 436.925 FM
Oscar 19 23 Oct 03:01:38 03:06:23 40° 287° (WNW) 03:11:08 437.125 CW, 437.150 USB
AO-27 23 Oct 03:13:45 03:19:00 83° 284° (WNW) 03:24:12 436.795 MHz FM
Sapphire 23 Oct 03:39:49 03:44:49 40° 109° (ESE) 03:49:51 437.095 MHz 1200 baud AX-25 AFSK
Oscar 16 23 Oct 03:48:59 03:51:26 14° 294° (WNW) 03:53:53 437.025 USB, Beacon 2401.1428
AO-Echo 23 Oct 03:59:13 04:03:13 22° 291° (WNW) 04:07:13 ?
JAS-1B 23 Oct 04:00:13 04:05:35 25° 291° (WNW) 04:11:41 435.800 - 435.900 CW/SSB
PCSat 23 Oct 04:02:09 04:07:31 75° 113° (ESE) 04:12:56 145.825 MHz
Uribyol 2 23 Oct 04:03:26 04:07:35 25° 291° (WNW) 04:11:42 436.500 FM
Uosat F 23 Oct 04:05:24 04:07:19 12° 94° (E) 04:09:13 435.120 FM
ITAMSAT 1 23 Oct 04:09:01 04:13:04 23° 291° (WNW) 04:17:06 435.822 SSB
Gurwin Techsat 1B 23 Oct 04:16:15 04:21:09 39° 288° (WNW) 04:26:03 435.225 FM
TMSAT-1 23 Oct 04:28:48 04:33:44 41° 288° (WNW) 04:38:38 436.925 FM
AO-7 23 Oct 04:29:46 04:37:27 40° 101° (E) 04:45:06 29.400 - 29.500 MHz
OPAL 23 Oct 04:37:35 04:42:03 30° 69° (ENE) 04:46:29 ?
Sapphire 23 Oct 05:24:13 05:28:20 22° 304° (WNW) 05:32:27 437.095 MHz 1200 baud AX-25 AFSK
Uosat F 23 Oct 05:41:24 05:46:20 56° 286° (WNW) 05:51:15 435.120 FM
PCSat 23 Oct 05:49:11 05:51:28 13° 308° (NW) 05:53:46 145.825 MHz
JAS-2 23 Oct 06:03:38 06:11:21 60° 100° (E) 06:18:57 435.800 - 435.900 CW/SSB, 435.910 FM
OPAL 23 Oct 06:16:39 06:20:50 25° 261° (W) 06:24:59 ?
STRAND 1 23 Oct 06:18:56 06:23:16 29° 70° (ENE) 06:27:38 ?
AO-7 23 Oct 06:22:36 06:30:01 38° 295° (WNW) 06:37:26 29.400 - 29.500 MHz
Hamsat 23 Oct 06:32:33 06:36:44 70° 101° (E) 06:40:56 145.90 MHz
RS-15 23 Oct 06:53:15 07:03:09 34° 50° (NE) 07:13:21 29.354 - 29.394 USB, Beacon 29.352 USB
Saudisat 1A 23 Oct 07:24:05 07:28:12 42° 113° (ESE) 07:32:22 436.775 MHz
SO-67 23 Oct 07:31:28 07:34:40 35° 98° (E) 07:37:50 435.3500 MHz FM
PANSAT 23 Oct 07:33:41 07:36:58 27° 161° (SSE) 07:40:14 not established
JAS-2 23 Oct 07:49:44 07:55:44 25° 294° (WNW) 08:01:44 435.800 - 435.900 CW/SSB, 435.910 FM
STRAND 1 23 Oct 07:58:11 08:02:21 25° 263° (W) 08:06:32 ?
RS-15 23 Oct 09:04:57 09:15:59 62° 249° (WSW) 09:27:33 29.354 - 29.394 USB, Beacon 29.352 USB
Saudisat 1A 23 Oct 09:05:21 09:07:56 15° 308° (NW) 09:10:32 436.775 MHz
HO-68 23 Oct 09:07:06 09:13:30 34° 99° (E) 09:19:51 435.675 MHz FM
PANSAT 23 Oct 09:13:05 09:16:51 57° 173° (S) 09:20:37 not established
UKube-1 23 Oct 09:35:13 09:37:53 16° 95° (E) 09:40:32 145.840 MHz, 145.915 MHz
FUNcube-1 23 Oct 10:11:56 10:14:16 15° 94° (E) 10:16:35 145.950 - 145.970 MHz USB
Oscar 11 23 Oct 10:17:00 10:21:10 49° 100° (E) 10:25:20 145.825 FM, Beacon 2401.500 USB
PANSAT 23 Oct 10:53:06 10:56:53 58° 186° (S) 11:00:39 not established
HO-68 23 Oct 10:54:39 11:01:04 37° 292° (WNW) 11:07:28 435.675 MHz FM
MaSat-1 23 Oct 10:56:07 10:57:38 15° 255° (WSW) 10:59:07 437.345 MHz
ZACube-1 23 Oct 11:01:23 11:05:36 66° 101° (E) 11:09:43 437.345 MHz
UKube-1 23 Oct 11:10:11 11:14:05 32° 288° (WNW) 11:17:57 145.840 MHz, 145.915 MHz
KITSAT 1 23 Oct 11:21:14 11:27:59 30° 106° (ESE) 11:34:44 435.175 FM
FUNcube-1 23 Oct 11:46:57 11:50:42 31° 287° (WNW) 11:54:23 145.950 - 145.970 MHz USB
Oscar 11 23 Oct 11:55:56 11:56:52 11° 293° (WNW) 11:57:48 145.825 FM, Beacon 2401.500 USB
PANSAT 23 Oct 12:33:27 12:36:46 28° 198° (SSW) 12:40:06 not established
Oscar 19 23 Oct 12:35:53 12:38:46 15° 67° (ENE) 12:41:38 437.125 CW, 437.150 USB
Sapphire 23 Oct 12:36:08 12:37:34 11° 51° (NE) 12:38:59 437.095 MHz 1200 baud AX-25 AFSK
SO-50 23 Oct 12:38:09 12:42:18 40° 113° (ESE) 12:46:33 436.795 FM
JAS-1B 23 Oct 12:51:13 12:55:33 21° 68° (ENE) 12:59:39 435.800 - 435.900 CW/SSB
ISS 23 Oct 12:56:13 12:59:30 60° 316° (NW) 13:02:47 145.800 FM
PCSat 23 Oct 12:56:52 13:00:42 19° 55° (NE) 13:04:30 145.825 MHz
Oscar 10/S400 23 Oct 13:01:50 13:24:30 49° 154° (SSE) 13:44:37 145.825 - 145.975 CW/USB, Beacon 145.810 USB
KITSAT 1 23 Oct 13:15:16 13:22:59 48° 301° (WNW) 13:30:44 435.175 FM
Oscar 16 23 Oct 13:19:01 13:23:55 45° 73° (ENE) 13:28:49 437.025 USB, Beacon 2401.1428
AO-Echo 23 Oct 13:27:59 13:31:50 24° 70° (ENE) 13:35:47 ?
Uribyol 2 23 Oct 13:36:25 13:40:43 27° 70° (ENE) 13:45:01 436.500 FM
ITAMSAT 1 23 Oct 13:41:56 13:46:19 28° 70° (ENE) 13:50:43 435.822 SSB
Gurwin Techsat 1B 23 Oct 13:53:32 13:57:04 18° 67° (ENE) 14:00:36 435.225 FM
TMSAT-1 23 Oct 14:05:57 14:09:21 18° 67° (ENE) 14:12:45 436.925 FM
UOSAT-12 23 Oct 14:10:33 14:14:35 31° 111° (ESE) 14:18:42 437.025 FM, 437.400 FM
Oscar 19 23 Oct 14:12:39 14:17:38 50° 260° (W) 14:22:38 437.125 CW, 437.150 USB
Sapphire 23 Oct 14:16:11 14:21:38 86° 246° (WSW) 14:27:02 437.095 MHz 1200 baud AX-25 AFSK
SO-50 23 Oct 14:20:07 14:23:00 17° 308° (NW) 14:25:56 436.795 FM
AO-27 23 Oct 14:26:10 14:31:22 85° 76° (ENE) 14:36:37 436.795 MHz FM
PCSat 23 Oct 14:39:08 14:44:18 47° 250° (WSW) 14:49:26 145.825 MHz
JAS-1B 23 Oct 14:40:05 14:45:59 40° 259° (W) 14:51:23 435.800 - 435.900 CW/SSB
Oscar 16 23 Oct 15:00:18 15:03:24 16° 265° (W) 15:06:29 437.025 USB, Beacon 2401.1428
AO-Echo 23 Oct 15:06:24 15:10:26 27° 264° (W) 15:14:35 ?
Uribyol 2 23 Oct 15:15:36 15:20:01 28° 263° (W) 15:24:28 436.500 FM
ITAMSAT 1 23 Oct 15:21:23 15:25:41 26° 263° (W) 15:30:01 435.822 SSB
AO-7 23 Oct 15:23:05 15:30:14 34° 64° (ENE) 15:37:22 29.400 - 29.500 MHz
Gurwin Techsat 1B 23 Oct 15:31:38 15:36:38 43° 261° (W) 15:41:41 435.225 FM
TMSAT-1 23 Oct 15:43:48 15:48:50 45° 260° (W) 15:53:55 436.925 FM
UOSAT-12 23 Oct 15:51:07 15:54:43 22° 306° (NW) 15:58:22 437.025 FM, 437.400 FM
JAS-2 23 Oct 16:14:45 16:16:16 11° 59° (ENE) 16:17:50 435.800 - 435.900 CW/SSB, 435.910 FM
Uosat F 23 Oct 16:48:50 16:53:50 74° 258° (WSW) 16:58:52 435.120 FM
OPAL 23 Oct 16:55:10 16:56:57 12° 95° (E) 16:58:43 ?
AO-7 23 Oct 17:14:56 17:22:41 45° 259° (WSW) 17:30:30 29.400 - 29.500 MHz
Hamsat 23 Oct 17:20:55 17:24:18 24° 72° (ENE) 17:27:41 145.90 MHz
Saudisat 1A 23 Oct 17:35:02 17:39:28 89° 243° (WSW) 17:43:52 436.775 MHz
JAS-2 23 Oct 17:54:33 18:00:11 85° 257° (WSW) 18:06:35 435.800 - 435.900 CW/SSB, 435.910 FM
OPAL 23 Oct 18:31:14 18:36:04 55° 288° (WNW) 18:40:52 ?
STRAND 1 23 Oct 18:36:14 18:39:11 15° 94° (E) 18:42:08 ?
Hamsat 23 Oct 18:57:02 19:00:09 20° 264° (W) 19:03:15 145.90 MHz
ISS 23 Oct 19:30:43 19:32:06 12° 33° (NNE) 19:33:29 145.800 FM
SO-67 23 Oct 19:30:57 19:34:20 63° 260° (W) 19:37:45 435.3500 MHz FM
HO-68 23 Oct 19:32:45 19:36:12 14° 60° (ENE) 19:39:40 435.675 MHz FM
AO-40 23 Oct 20:09:44 22:14:50 20° 105° (ESE) 23:21:32 Beacon 2401.320
STRAND 1 23 Oct 20:13:37 20:18:31 46° 287° (WNW) 20:23:24 ?
ISS 23 Oct 21:05:46 21:09:04 61° 228° (SW) 21:12:20 145.800 FM
Oscar 11 23 Oct 21:07:25 21:10:32 20° 71° (ENE) 21:13:39 145.825 FM, Beacon 2401.500 USB
RS-15 23 Oct 21:10:32 21:20:07 35° 106° (ESE) 21:29:29 29.354 - 29.394 USB, Beacon 29.352 USB
KITSAT 1 23 Oct 21:14:50 21:21:58 33° 55° (NE) 21:29:03 435.175 FM
HO-68 23 Oct 21:15:47 21:22:57 86° 255° (WSW) 21:30:09 435.675 MHz FM
SO-50 23 Oct 21:17:34 21:18:38 11° 48° (NE) 21:19:43 436.795 FM
ZACube-1 23 Oct 21:52:19 21:56:14 28° 72° (ENE) 22:00:07 437.345 MHz
UKube-1 23 Oct 21:59:23 22:03:43 79° 258° (WSW) 22:08:05 145.840 MHz, 145.915 MHz
FUNcube-1 23 Oct 22:36:33 22:41:10 86° 257° (WSW) 22:45:45 145.950 - 145.970 MHz USB
Oscar 11 23 Oct 22:42:52 22:46:30 26° 263° (W) 22:50:08 145.825 FM, Beacon 2401.500 USB
MaSat-1 23 Oct 22:52:10 22:54:48 16° 105° (ESE) 22:57:19 437.345 MHz
SO-50 23 Oct 22:54:51 22:59:44 82° 244° (WSW) 23:04:37 436.795 FM
KITSAT 1 23 Oct 23:09:51 23:17:25 46° 251° (WSW) 23:24:58 435.175 FM
HO-68 23 Oct 23:10:44 23:11:20 10° 268° (W) 23:11:56 435.675 MHz FM
RS-15 23 Oct 23:21:13 23:31:53 53° 303° (WNW) 23:42:30 29.354 - 29.394 USB, Beacon 29.352 USB
ZACube-1 23 Oct 23:29:05 23:32:32 21° 264° (W) 23:35:58 437.345 MHz
UOSAT-12 24 Oct 00:24:49 00:29:31 72° 62° (ENE) 00:34:05 437.025 FM, 437.400 FM
MaSat-1 24 Oct 00:26:26 00:30:15 31° 294° (WNW) 00:33:48 437.345 MHz
